Wetterdaten: Samstag, 10.10.2015
Datum Zeit Temp. A. Feuchte A. Luftdruck Regen Wind Richtung Richtung Sonnenschein ET UV Solar Taupunkt Windchill Windben Empfang
10.10.2015 00:03 11,3 C 88 % 1018,2 hPa 0,0 l/m 0,4 km/h (0 Bft) O-NO 74 0 min 0,000 mm 0,0 UV-I 0 W/m 9,4 C 11,3 C 4,0 km/h (1 Bft) 0,00 %
10.10.2015 00:08 11,3 C 89 % 1018,2 hPa 0,0 l/m 3,2 km/h (1 Bft) O 85 0 min 0,000 mm 0,0 UV-I 0 W/m 9,6 C 11,3 C 7,9 km/h (2 Bft) 0,00 %
10.10.2015 00:13 11,2 C 89 % 1018,2 hPa 0,0 l/m 2,9 km/h (1 Bft) O 100 0 min 0,000 mm 0,0 UV-I 0 W/m 9,5 C 11,2 C 7,9 km/h (2 Bft) 0,00 %
10.10.2015 00:18 11,2 C 89 % 1018,4 hPa 0,0 l/m 6,8 km/h (2 Bft) O 91 0 min 0,000 mm 0,0 UV-I 0 W/m 9,5 C 10,9 C 7,9 km/h (2 Bft) 0,00 %
10.10.2015 00:23 11,2 C 89 % 1018,1 hPa 0,0 l/m 1,8 km/h (1 Bft) O-SO 109 0 min 0,000 mm 0,0 UV-I 0 W/m 9,5 C 11,2 C 4,0 km/h (1 Bft) 0,00 %
10.10.2015 00:28 11,2 C 89 % 1018,3 hPa 0,0 l/m 4,3 km/h (1 Bft) O-SO 118 0 min 0,000 mm 0,0 UV-I 0 W/m 9,5 C 11,2 C 7,9 km/h (2 Bft) 0,00 %
10.10.2015 00:33 11,3 C 90 % 1018,2 hPa 0,0 l/m 1,4 km/h (1 Bft) O 91 0 min 0,000 mm 0,0 UV-I 0 W/m 9,7 C 11,3 C 4,0 km/h (1 Bft) 0,00 %
10.10.2015 00:38 11,2 C 89 % 1018,4 hPa 0,0 l/m 9,0 km/h (2 Bft) O-SO 113 0 min 0,000 mm 0,0 UV-I 0 W/m 9,5 C 9,5 C 11,9 km/h (2 Bft) 0,00 %
10.10.2015 00:43 11,1 C 89 % 1018,3 hPa 0,0 l/m 6,5 km/h (2 Bft) O-SO 111 0 min 0,000 mm 0,0 UV-I 0 W/m 9,4 C 11,1 C 7,9 km/h (2 Bft) 0,00 %
10.10.2015 00:48 11,1 C 89 % 1018,4 hPa 0,0 l/m 4,7 km/h (1 Bft) O 86 0 min 0,000 mm 0,0 UV-I 0 W/m 9,4 C 11,1 C 7,9 km/h (2 Bft) 0,00 %
10.10.2015 00:53 11,1 C 89 % 1018,3 hPa 0,0 l/m 6,8 km/h (2 Bft) O-SO 108 0 min 0,000 mm 0,0 UV-I 0 W/m 9,4 C 10,8 C 7,9 km/h (2 Bft) 0,00 %
10.10.2015 00:58 11,0 C 89 % 1018,1 hPa 0,0 l/m 4,0 km/h (1 Bft) S 173 0 min 0,000 mm 0,0 UV-I 0 W/m 9,3 C 11,0 C 7,9 km/h (2 Bft) 0,00 %
10.10.2015 01:03 11,0 C 89 % 1018,4 hPa 0,0 l/m 9,7 km/h (2 Bft) O-NO 61 0 min 0,000 mm 0,0 UV-I 0 W/m 9,3 C 8,9 C 15,8 km/h (3 Bft) 0,00 %
10.10.2015 01:08 11,0 C 89 % 1018,2 hPa 0,0 l/m 6,5 km/h (2 Bft) O 94 0 min 0,000 mm 0,0 UV-I 0 W/m 9,3 C 11,0 C 11,9 km/h (2 Bft) 0,00 %
10.10.2015 01:13 11,0 C 89 % 1018,4 hPa 0,0 l/m 0,0 km/h (0 Bft) O-NO 61 0 min 0,000 mm 0,0 UV-I 0 W/m 9,3 C 11,0 C 0,0 km/h (0 Bft) 0,00 %
10.10.2015 01:18 11,0 C 89 % 1018,1 hPa 0,0 l/m 10,4 km/h (2 Bft) O 83 0 min 0,000 mm 0,0 UV-I 0 W/m 9,3 C 8,5 C 15,8 km/h (3 Bft) 0,00 %
10.10.2015 01:23 11,0 C 88 % 1018,3 hPa 0,0 l/m 8,3 km/h (2 Bft) O 86 0 min 0,000 mm 0,0 UV-I 0 W/m 9,1 C 9,7 C 11,9 km/h (2 Bft) 0,00 %
10.10.2015 01:28 10,9 C 89 % 1018,1 hPa 0,0 l/m 0,4 km/h (0 Bft) O 96 0 min 0,000 mm 0,0 UV-I 0 W/m 9,2 C 10,9 C 4,0 km/h (1 Bft) 0,00 %
10.10.2015 01:33 10,9 C 89 % 1018,3 hPa 0,0 l/m 9,7 km/h (2 Bft) O-SO 102 0 min 0,000 mm 0,0 UV-I 0 W/m 9,2 C 8,8 C 11,9 km/h (2 Bft) 0,00 %
10.10.2015 01:38 10,9 C 89 % 1018,4 hPa 0,0 l/m 1,8 km/h (1 Bft) O-NO 73 0 min 0,000 mm 0,0 UV-I 0 W/m 9,2 C 10,9 C 4,0 km/h (1 Bft) 0,00 %
10.10.2015 01:43 10,9 C 89 % 1018,3 hPa 0,0 l/m 4,3 km/h (1 Bft) O 93 0 min 0,000 mm 0,0 UV-I 0 W/m 9,2 C 10,9 C 7,9 km/h (2 Bft) 0,00 %
10.10.2015 01:48 10,9 C 89 % 1018,2 hPa 0,0 l/m 4,3 km/h (1 Bft) O-NO 75 0 min 0,000 mm 0,0 UV-I 0 W/m 9,2 C 10,9 C 7,9 km/h (2 Bft) 0,00 %
10.10.2015 01:53 10,9 C 88 % 1018,2 hPa 0,0 l/m 6,8 km/h (2 Bft) NO 49 0 min 0,000 mm 0,0 UV-I 0 W/m 9,0 C 10,6 C 11,9 km/h (2 Bft) 0,00 %
10.10.2015 01:58 10,9 C 87 % 1018,3 hPa 0,0 l/m 4,3 km/h (1 Bft) O 79 0 min 0,000 mm 0,0 UV-I 0 W/m 8,8 C 10,9 C 7,9 km/h (2 Bft) 0,00 %
10.10.2015 02:03 10,9 C 86 % 1018,2 hPa 0,0 l/m 5,8 km/h (2 Bft) O 81 0 min 0,000 mm 0,0 UV-I 0 W/m 8,7 C 10,9 C 7,9 km/h (2 Bft) 0,00 %
10.10.2015 02:08 10,9 C 86 % 1018,1 hPa 0,0 l/m 11,9 km/h (2 Bft) O 87 0 min 0,000 mm 0,0 UV-I 0 W/m 8,7 C 7,6 C 15,8 km/h (3 Bft) 0,00 %
10.10.2015 02:13 10,8 C 85 % 1017,9 hPa 0,0 l/m 7,9 km/h (2 Bft) O 94 0 min 0,000 mm 0,0 UV-I 0 W/m 8,4 C 9,8 C 11,9 km/h (2 Bft) 0,00 %
10.10.2015 02:18 10,8 C 85 % 1018,0 hPa 0,0 l/m 12,2 km/h (2 Bft) O-NO 77 0 min 0,000 mm 0,0 UV-I 0 W/m 8,4 C 7,3 C 15,8 km/h (3 Bft) 0,00 %
10.10.2015 02:23 10,7 C 85 % 1018,0 hPa 0,0 l/m 9,7 km/h (2 Bft) SO 130 0 min 0,000 mm 0,0 UV-I 0 W/m 8,3 C 8,5 C 15,8 km/h (3 Bft) 0,00 %
10.10.2015 02:28 10,7 C 85 % 1017,9 hPa 0,0 l/m 14,0 km/h (3 Bft) O 82 0 min 0,000 mm 0,0 UV-I 0 W/m 8,3 C 6,4 C 19,8 km/h (3 Bft) 0,00 %
10.10.2015 02:33 10,7 C 85 % 1017,9 hPa 0,0 l/m 9,0 km/h (2 Bft) O 87 0 min 0,000 mm 0,0 UV-I 0 W/m 8,3 C 9,0 C 11,9 km/h (2 Bft) 0,00 %
10.10.2015 02:38 10,6 C 85 % 1017,9 hPa 0,0 l/m 5,4 km/h (1 Bft) O-NO 71 0 min 0,000 mm 0,0 UV-I 0 W/m 8,2 C 10,6 C 7,9 km/h (2 Bft) 0,00 %
10.10.2015 02:43 10,6 C 84 % 1017,8 hPa 0,0 l/m 8,3 km/h (2 Bft) O 101 0 min 0,000 mm 0,0 UV-I 0 W/m 8,0 C 9,3 C 11,9 km/h (2 Bft) 0,00 %
10.10.2015 02:48 10,6 C 84 % 1017,8 hPa 0,0 l/m 9,7 km/h (2 Bft) O-NO 78 0 min 0,000 mm 0,0 UV-I 0 W/m 8,0 C 8,4 C 15,8 km/h (3 Bft) 0,00 %
10.10.2015 02:53 10,5 C 84 % 1017,7 hPa 0,0 l/m 4,7 km/h (1 Bft) O-NO 60 0 min 0,000 mm 0,0 UV-I 0 W/m 7,9 C 10,5 C 7,9 km/h (2 Bft) 0,00 %
10.10.2015 02:58 10,5 C 85 % 1017,8 hPa 0,0 l/m 7,9 km/h (2 Bft) O 85 0 min 0,000 mm 0,0 UV-I 0 W/m 8,1 C 9,4 C 11,9 km/h (2 Bft) 0,00 %
10.10.2015 03:03 10,4 C 85 % 1017,6 hPa 0,0 l/m 8,3 km/h (2 Bft) O 92 0 min 0,000 mm 0,0 UV-I 0 W/m 8,0 C 9,1 C 11,9 km/h (2 Bft) 0,00 %
10.10.2015 03:08 10,4 C 85 % 1017,7 hPa 0,0 l/m 7,9 km/h (2 Bft) O-SO 107 0 min 0,000 mm 0,0 UV-I 0 W/m 8,0 C 9,3 C 11,9 km/h (2 Bft) 0,00 %
10.10.2015 03:13 10,3 C 85 % 1017,7 hPa 0,0 l/m 3,2 km/h (1 Bft) O 90 0 min 0,000 mm 0,0 UV-I 0 W/m 7,9 C 10,3 C 7,9 km/h (2 Bft) 0,00 %
10.10.2015 03:18 10,3 C 85 % 1017,9 hPa 0,0 l/m 8,3 km/h (2 Bft) O 100 0 min 0,000 mm 0,0 UV-I 0 W/m 7,9 C 9,0 C 11,9 km/h (2 Bft) 0,00 %
10.10.2015 03:23 10,3 C 85 % 1017,9 hPa 0,0 l/m 2,2 km/h (1 Bft) O-NO 63 0 min 0,000 mm 0,0 UV-I 0 W/m 7,9 C 10,3 C 4,0 km/h (1 Bft) 0,00 %
10.10.2015 03:28 10,3 C 84 % 1017,9 hPa 0,0 l/m 0,0 km/h (0 Bft) O-SO 111 0 min 0,000 mm 0,0 UV-I 0 W/m 7,7 C 10,3 C 0,0 km/h (0 Bft) 0,00 %
10.10.2015 03:33 10,2 C 84 % 1017,9 hPa 0,0 l/m 4,7 km/h (1 Bft) O 94 0 min 0,000 mm 0,0 UV-I 0 W/m 7,6 C 10,2 C 7,9 km/h (2 Bft) 0,00 %
10.10.2015 03:38 10,2 C 84 % 1017,8 hPa 0,0 l/m 6,5 km/h (2 Bft) O-NO 69 0 min 0,000 mm 0,0 UV-I 0 W/m 7,6 C 10,2 C 11,9 km/h (2 Bft) 0,00 %
10.10.2015 03:43 10,1 C 84 % 1018,0 hPa 0,0 l/m 5,4 km/h (1 Bft) O 88 0 min 0,000 mm 0,0 UV-I 0 W/m 7,5 C 10,1 C 7,9 km/h (2 Bft) 0,00 %
10.10.2015 03:48 10,1 C 84 % 1018,0 hPa 0,0 l/m 6,8 km/h (2 Bft) O 83 0 min 0,000 mm 0,0 UV-I 0 W/m 7,5 C 9,8 C 11,9 km/h (2 Bft) 0,00 %
10.10.2015 03:53 10,1 C 84 % 1018,0 hPa 0,0 l/m 11,9 km/h (2 Bft) O 99 0 min 0,000 mm 0,0 UV-I 0 W/m 7,5 C 6,7 C 15,8 km/h (3 Bft) 0,00 %
10.10.2015 03:58 10,1 C 84 % 1018,0 hPa 0,0 l/m 1,8 km/h (1 Bft) O-SO 108 0 min 0,000 mm 0,0 UV-I 0 W/m 7,5 C 10,1 C 4,0 km/h (1 Bft) 0,00 %
10.10.2015 04:03 10,1 C 84 % 1017,9 hPa 0,0 l/m 4,3 km/h (1 Bft) O 81 0 min 0,000 mm 0,0 UV-I 0 W/m 7,5 C 10,1 C 7,9 km/h (2 Bft) 0,00 %
10.10.2015 04:08 10,1 C 84 % 1017,9 hPa 0,0 l/m 1,4 km/h (1 Bft) O-NO 62 0 min 0,000 mm 0,0 UV-I 0 W/m 7,5 C 10,1 C 4,0 km/h (1 Bft) 0,00 %
10.10.2015 04:13 10,1 C 84 % 1017,8 hPa 0,0 l/m 5,4 km/h (1 Bft) O-SO 102 0 min 0,000 mm 0,0 UV-I 0 W/m 7,5 C 10,1 C 7,9 km/h (2 Bft) 0,00 %
10.10.2015 04:18 10,0 C 85 % 1017,8 hPa 0,0 l/m 2,9 km/h (1 Bft) O-NO 76 0 min 0,000 mm 0,0 UV-I 0 W/m 7,6 C 10,0 C 7,9 km/h (2 Bft) 0,00 %
10.10.2015 04:23 10,0 C 85 % 1018,0 hPa 0,0 l/m 4,7 km/h (1 Bft) O 85 0 min 0,000 mm 0,0 UV-I 0 W/m 7,6 C 10,0 C 7,9 km/h (2 Bft) 0,00 %
10.10.2015 04:28 10,0 C 85 % 1018,0 hPa 0,0 l/m 9,0 km/h (2 Bft) O-SO 108 0 min 0,000 mm 0,0 UV-I 0 W/m 7,6 C 8,2 C 11,9 km/h (2 Bft) 0,00 %
10.10.2015 04:33 10,0 C 84 % 1017,9 hPa 0,0 l/m 5,4 km/h (1 Bft) O 100 0 min 0,000 mm 0,0 UV-I 0 W/m 7,4 C 10,0 C 7,9 km/h (2 Bft) 0,00 %
10.10.2015 04:38 10,0 C 85 % 1017,9 hPa 0,0 l/m 3,2 km/h (1 Bft) O 95 0 min 0,000 mm 0,0 UV-I 0 W/m 7,6 C 10,0 C 4,0 km/h (1 Bft) 0,00 %
10.10.2015 04:43 9,9 C 86 % 1017,9 hPa 0,0 l/m 9,7 km/h (2 Bft) O 80 0 min 0,000 mm 0,0 UV-I 0 W/m 7,7 C 7,7 C 11,9 km/h (2 Bft) 0,00 %
10.10.2015 04:48 9,9 C 85 % 1017,8 hPa 0,0 l/m 8,3 km/h (2 Bft) O 92 0 min 0,000 mm 0,0 UV-I 0 W/m 7,5 C 8,5 C 15,8 km/h (3 Bft) 0,00 %
10.10.2015 04:53 9,8 C 85 % 1017,6 hPa 0,0 l/m 3,2 km/h (1 Bft) O-SO 117 0 min 0,000 mm 0,0 UV-I 0 W/m 7,4 C 9,8 C 7,9 km/h (2 Bft) 0,00 %
10.10.2015 04:58 9,7 C 84 % 1017,7 hPa 0,0 l/m 4,7 km/h (1 Bft) O 86 0 min 0,000 mm 0,0 UV-I 0 W/m 7,1 C 9,7 C 7,9 km/h (2 Bft) 0,00 %
10.10.2015 05:03 9,7 C 85 % 1017,8 hPa 0,0 l/m 2,2 km/h (1 Bft) O 82 0 min 0,000 mm 0,0 UV-I 0 W/m 7,3 C 9,7 C 4,0 km/h (1 Bft) 0,00 %
10.10.2015 05:08 9,7 C 85 % 1017,6 hPa 0,0 l/m 2,9 km/h (1 Bft) O-NO 72 0 min 0,000 mm 0,0 UV-I 0 W/m 7,3 C 9,7 C 7,9 km/h (2 Bft) 0,00 %
10.10.2015 05:13 9,7 C 84 % 1017,6 hPa 0,0 l/m 12,2 km/h (2 Bft) O-NO 68 0 min 0,000 mm 0,0 UV-I 0 W/m 7,1 C 6,1 C 15,8 km/h (3 Bft) 0,00 %
10.10.2015 05:18 9,6 C 84 % 1017,5 hPa 0,0 l/m 3,2 km/h (1 Bft) SO 125 0 min 0,000 mm 0,0 UV-I 0 W/m 7,0 C 9,6 C 4,0 km/h (1 Bft) 0,00 %
10.10.2015 05:23 9,6 C 84 % 1017,6 hPa 0,0 l/m 1,8 km/h (1 Bft) O 86 0 min 0,000 mm 0,0 UV-I 0 W/m 7,0 C 9,6 C 4,0 km/h (1 Bft) 0,00 %
10.10.2015 05:28 9,5 C 83 % 1017,5 hPa 0,0 l/m 11,5 km/h (2 Bft) O-SO 103 0 min 0,000 mm 0,0 UV-I 0 W/m 6,8 C 6,2 C 15,8 km/h (3 Bft) 0,00 %
10.10.2015 05:33 9,5 C 83 % 1017,5 hPa 0,0 l/m 7,9 km/h (2 Bft) O 100 0 min 0,000 mm 0,0 UV-I 0 W/m 6,8 C 8,4 C 11,9 km/h (2 Bft) 0,00 %
10.10.2015 05:38 9,4 C 83 % 1017,4 hPa 0,0 l/m 5,4 km/h (1 Bft) O-NO 69 0 min 0,000 mm 0,0 UV-I 0 W/m 6,7 C 9,4 C 7,9 km/h (2 Bft) 0,00 %
10.10.2015 05:43 9,3 C 83 % 1017,3 hPa 0,0 l/m 2,9 km/h (1 Bft) O-NO 77 0 min 0,000 mm 0,0 UV-I 0 W/m 6,6 C 9,3 C 7,9 km/h (2 Bft) 0,00 %
10.10.2015 05:48 9,3 C 83 % 1017,4 hPa 0,0 l/m 1,8 km/h (1 Bft) O-NO 59 0 min 0,000 mm 0,0 UV-I 0 W/m 6,6 C 9,3 C 4,0 km/h (1 Bft) 0,00 %
10.10.2015 05:53 9,3 C 82 % 1017,3 hPa 0,0 l/m 1,4 km/h (1 Bft) SO 128 0 min 0,000 mm 0,0 UV-I 0 W/m 6,4 C 9,3 C 4,0 km/h (1 Bft) 0,00 %
10.10.2015 05:58 9,2 C 81 % 1017,2 hPa 0,0 l/m 2,9 km/h (1 Bft) O-SO 114 0 min 0,000 mm 0,0 UV-I 0 W/m 6,1 C 9,2 C 4,0 km/h (1 Bft) 0,00 %
10.10.2015 06:03 9,1 C 80 % 1017,2 hPa 0,0 l/m 4,7 km/h (1 Bft) O 87 0 min 0,000 mm 0,0 UV-I 0 W/m 5,8 C 9,1 C 7,9 km/h (2 Bft) 0,00 %
10.10.2015 06:08 9,1 C 80 % 1017,3 hPa 0,0 l/m 5,4 km/h (1 Bft) O-NO 69 0 min 0,000 mm 0,0 UV-I 0 W/m 5,8 C 9,1 C 7,9 km/h (2 Bft) 0,00 %
10.10.2015 06:13 9,0 C 80 % 1017,4 hPa 0,0 l/m 4,7 km/h (1 Bft) O-NO 64 0 min 0,000 mm 0,0 UV-I 0 W/m 5,7 C 9,0 C 7,9 km/h (2 Bft) 0,00 %
10.10.2015 06:18 8,9 C 80 % 1017,3 hPa 0,0 l/m 4,3 km/h (1 Bft) O-SO 123 0 min 0,000 mm 0,0 UV-I 0 W/m 5,6 C 8,9 C 7,9 km/h (2 Bft) 0,00 %
10.10.2015 06:23 8,8 C 80 % 1017,4 hPa 0,0 l/m 2,2 km/h (1 Bft) O 92 0 min 0,000 mm 0,0 UV-I 0 W/m 5,5 C 8,8 C 4,0 km/h (1 Bft) 0,00 %
10.10.2015 06:28 8,7 C 81 % 1017,3 hPa 0,0 l/m 4,3 km/h (1 Bft) O-SO 121 0 min 0,000 mm 0,0 UV-I 0 W/m 5,6 C 8,7 C 7,9 km/h (2 Bft) 0,00 %
10.10.2015 06:33 8,7 C 81 % 1017,5 hPa 0,0 l/m 3,2 km/h (1 Bft) O-NO 76 0 min 0,000 mm 0,0 UV-I 0 W/m 5,6 C 8,7 C 4,0 km/h (1 Bft) 0,00 %
10.10.2015 06:38 8,6 C 81 % 1017,3 hPa 0,0 l/m 4,0 km/h (1 Bft) O 99 0 min 0,000 mm 0,0 UV-I 0 W/m 5,5 C 8,6 C 7,9 km/h (2 Bft) 0,00 %
10.10.2015 06:43 8,6 C 80 % 1017,3 hPa 0,0 l/m 4,0 km/h (1 Bft) O 96 0 min 0,000 mm 0,0 UV-I 0 W/m 5,3 C 8,6 C 7,9 km/h (2 Bft) 0,00 %
10.10.2015 06:48 8,5 C 79 % 1017,4 hPa 0,0 l/m 0,7 km/h (0 Bft) SO 132 0 min 0,000 mm 0,0 UV-I 0 W/m 5,1 C 8,5 C 4,0 km/h (1 Bft) 0,00 %
10.10.2015 06:53 8,5 C 78 % 1017,6 hPa 0,0 l/m 9,7 km/h (2 Bft) O-SO 110 0 min 0,000 mm 0,0 UV-I 0 W/m 4,9 C 6,1 C 11,9 km/h (2 Bft) 0,00 %
10.10.2015 06:58 8,4 C 78 % 1017,4 hPa 0,0 l/m 4,7 km/h (1 Bft) O 81 0 min 0,000 mm 0,0 UV-I 0 W/m 4,8 C 8,4 C 7,9 km/h (2 Bft) 0,00 %
10.10.2015 07:03 8,4 C 78 % 1017,4 hPa 0,0 l/m 3,2 km/h (1 Bft) O-SO 116 0 min 0,000 mm 0,0 UV-I 0 W/m 4,8 C 8,4 C 7,9 km/h (2 Bft) 0,00 %
10.10.2015 07:08 8,3 C 77 % 1017,4 hPa 0,0 l/m 0,4 km/h (0 Bft) NO 35 0 min 0,000 mm 0,0 UV-I 0 W/m 4,5 C 8,3 C 4,0 km/h (1 Bft) 0,00 %
10.10.2015 07:13 8,2 C 77 % 1017,5 hPa 0,0 l/m 0,0 km/h (0 Bft) O 100 0 min 0,000 mm 0,0 UV-I 0 W/m 4,4 C 8,2 C 0,0 km/h (0 Bft) 0,00 %
10.10.2015 07:18 8,2 C 77 % 1017,3 hPa 0,0 l/m 2,2 km/h (1 Bft) N-NO 27 0 min 0,000 mm 0,0 UV-I 0 W/m 4,4 C 8,2 C 4,0 km/h (1 Bft) 0,00 %
10.10.2015 07:23 8,1 C 76 % 1017,3 hPa 0,0 l/m 2,9 km/h (1 Bft) O 99 0 min 0,000 mm 0,0 UV-I 0 W/m 4,1 C 8,1 C 7,9 km/h (2 Bft) 0,00 %
10.10.2015 07:28 8,1 C 77 % 1017,3 hPa 0,0 l/m 5,8 km/h (2 Bft) O 94 0 min 0,000 mm 0,0 UV-I 0 W/m 4,3 C 8,1 C 11,9 km/h (2 Bft) 0,00 %
10.10.2015 07:33 8,1 C 76 % 1017,2 hPa 0,0 l/m 0,4 km/h (0 Bft) O-NO 64 0 min 0,000 mm 0,0 UV-I 0 W/m 4,1 C 8,1 C 4,0 km/h (1 Bft) 0,00 %
10.10.2015 07:38 8,1 C 76 % 1017,3 hPa 0,0 l/m 2,2 km/h (1 Bft) O-NO 66 0 min 0,000 mm 0,0 UV-I 0 W/m 4,1 C 8,1 C 4,0 km/h (1 Bft) 0,00 %
10.10.2015 07:43 8,1 C 76 % 1017,4 hPa 0,0 l/m 0,7 km/h (0 Bft) O-NO 57 0 min 0,000 mm 0,0 UV-I 0 W/m 4,1 C 8,1 C 4,0 km/h (1 Bft) 0,00 %
10.10.2015 07:48 8,0 C 76 % 1017,5 hPa 0,0 l/m 5,8 km/h (2 Bft) O 83 0 min 0,000 mm 0,0 UV-I 4 W/m 4,0 C 8,0 C 7,9 km/h (2 Bft) 0,00 %
10.10.2015 07:53 8,0 C 76 % 1017,6 hPa 0,0 l/m 6,8 km/h (2 Bft) O 100 0 min 0,000 mm 0,0 UV-I 8 W/m 4,0 C 7,7 C 7,9 km/h (2 Bft) 0,00 %
10.10.2015 07:58 8,1 C 76 % 1017,3 hPa 0,0 l/m 6,5 km/h (2 Bft) O-SO 106 0 min 0,000 mm 0,0 UV-I 12 W/m 4,1 C 8,0 C 7,9 km/h (2 Bft) 0,00 %
10.10.2015 08:03 8,1 C 76 % 1017,4 hPa 0,0 l/m 9,7 km/h (2 Bft) O 99 0 min 0,000 mm 0,0 UV-I 18 W/m 4,1 C 5,7 C 11,9 km/h (2 Bft) 0,00 %
10.10.2015 08:08 8,1 C 76 % 1017,3 hPa 0,0 l/m 5,8 km/h (2 Bft) O-NO 77 0 min 0,000 mm 0,0 UV-I 24 W/m 4,1 C 8,1 C 7,9 km/h (2 Bft) 0,00 %
10.10.2015 08:13 8,1 C 76 % 1017,4 hPa 0,0 l/m 0,0 km/h (0 Bft) NO 41 0 min 0,000 mm 0,0 UV-I 31 W/m 4,1 C 8,1 C 0,0 km/h (0 Bft) 0,00 %
10.10.2015 08:18 8,2 C 76 % 1017,5 hPa 0,0 l/m 9,7 km/h (2 Bft) O-SO 110 0 min 0,000 mm 0,0 UV-I 40 W/m 4,2 C 5,8 C 11,9 km/h (2 Bft) 0,00 %
10.10.2015 08:23 8,2 C 75 % 1017,6 hPa 0,0 l/m 9,4 km/h (2 Bft) O 93 0 min 0,000 mm 0,0 UV-I 46 W/m 4,0 C 6,0 C 11,9 km/h (2 Bft) 0,00 %
10.10.2015 08:28 8,2 C 75 % 1017,3 hPa 0,0 l/m 4,0 km/h (1 Bft) O-NO 59 0 min 0,000 mm 0,0 UV-I 56 W/m 4,0 C 8,2 C 4,0 km/h (1 Bft) 0,00 %
10.10.2015 08:33 8,3 C 75 % 1017,3 hPa 0,0 l/m 3,2 km/h (1 Bft) NO 55 0 min 0,000 mm 0,0 UV-I 66 W/m 4,1 C 8,3 C 7,9 km/h (2 Bft) 0,00 %
10.10.2015 08:38 8,3 C 76 % 1017,4 hPa 0,0 l/m 7,2 km/h (2 Bft) O 92 0 min 0,000 mm 0,0 UV-I 75 W/m 4,3 C 7,7 C 15,8 km/h (3 Bft) 0,00 %
10.10.2015 08:43 8,4 C 76 % 1017,3 hPa 0,0 l/m 4,3 km/h (1 Bft) O 91 0 min 0,000 mm 0,0 UV-I 94 W/m 4,4 C 8,4 C 7,9 km/h (2 Bft) 0,00 %
10.10.2015 08:48 8,5 C 75 % 1017,5 hPa 0,0 l/m 9,4 km/h (2 Bft) O 89 0 min 0,000 mm 0,0 UV-I 87 W/m 4,3 C 6,3 C 11,9 km/h (2 Bft) 0,00 %
10.10.2015 08:53 8,5 C 75 % 1017,5 hPa 0,0 l/m 0,4 km/h (0 Bft) O-NO 57 0 min 0,000 mm 0,0 UV-I 85 W/m 4,3 C 8,5 C 4,0 km/h (1 Bft) 0,00 %
10.10.2015 08:58 8,6 C 75 % 1017,4 hPa 0,0 l/m 3,2 km/h (1 Bft) O-NO 76 0 min 0,000 mm 1,0 UV-I 93 W/m 4,4 C 8,6 C 4,0 km/h (1 Bft) 0,00 %
10.10.2015 09:03 8,6 C 75 % 1017,5 hPa 0,0 l/m 1,8 km/h (1 Bft) O-NO 63 0 min 0,000 mm 1,0 UV-I 91 W/m 4,4 C 8,6 C 4,0 km/h (1 Bft) 0,00 %
10.10.2015 09:08 8,6 C 75 % 1017,5 hPa 0,0 l/m 3,2 km/h (1 Bft) NO 55 0 min 0,000 mm 0,0 UV-I 87 W/m 4,4 C 8,6 C 7,9 km/h (2 Bft) 0,00 %
10.10.2015 09:13 8,6 C 74 % 1017,4 hPa 0,0 l/m 4,3 km/h (1 Bft) O-NO 63 0 min 0,000 mm 0,0 UV-I 91 W/m 4,2 C 8,6 C 7,9 km/h (2 Bft) 0,00 %
10.10.2015 09:18 8,5 C 75 % 1017,3 hPa 0,0 l/m 4,0 km/h (1 Bft) O-NO 69 0 min 0,000 mm 1,0 UV-I 98 W/m 4,3 C 8,5 C 7,9 km/h (2 Bft) 0,00 %
10.10.2015 09:23 8,5 C 75 % 1017,3 hPa 0,0 l/m 0,0 km/h (0 Bft) NO 54 0 min 0,000 mm 1,0 UV-I 102 W/m 4,3 C 8,5 C 0,0 km/h (0 Bft) 0,00 %
10.10.2015 09:28 8,6 C 74 % 1017,3 hPa 0,0 l/m 8,3 km/h (2 Bft) O-NO 78 0 min 0,000 mm 1,0 UV-I 132 W/m 4,2 C 7,2 C 11,9 km/h (2 Bft) 0,00 %
10.10.2015 09:33 8,7 C 75 % 1017,5 hPa 0,0 l/m 0,4 km/h (0 Bft) O 91 0 min 0,000 mm 1,0 UV-I 117 W/m 4,5 C 8,7 C 4,0 km/h (1 Bft) 0,00 %
10.10.2015 09:38 8,8 C 74 % 1017,2 hPa 0,0 l/m 7,2 km/h (2 Bft) O 82 0 min 0,000 mm 1,0 UV-I 133 W/m 4,4 C 8,2 C 11,9 km/h (2 Bft) 0,00 %
10.10.2015 09:43 8,8 C 74 % 1017,3 hPa 0,0 l/m 18,4 km/h (3 Bft) O 94 0 min 0,000 mm 1,0 UV-I 127 W/m 4,4 C 2,3 C 28,1 km/h (4 Bft) 0,00 %
10.10.2015 09:48 8,8 C 74 % 1017,3 hPa 0,0 l/m 10,8 km/h (2 Bft) O 83 0 min 0,000 mm 1,0 UV-I 121 W/m 4,4 C 5,8 C 11,9 km/h (2 Bft) 0,00 %
10.10.2015 09:53 8,8 C 74 % 1017,3 hPa 0,0 l/m 8,3 km/h (2 Bft) O-SO 103 0 min 0,000 mm 1,0 UV-I 134 W/m 4,4 C 7,4 C 15,8 km/h (3 Bft) 0,00 %
10.10.2015 09:58 8,7 C 74 % 1017,3 hPa 0,0 l/m 9,7 km/h (2 Bft) O 85 0 min 0,000 mm 1,0 UV-I 138 W/m 4,3 C 6,3 C 11,9 km/h (2 Bft) 0,00 %
10.10.2015 10:03 8,7 C 76 % 1017,2 hPa 0,0 l/m 5,4 km/h (1 Bft) SO 124 0 min 0,000 mm 1,0 UV-I 139 W/m 4,7 C 8,7 C 7,9 km/h (2 Bft) 0,00 %
10.10.2015 10:08 8,8 C 75 % 1017,4 hPa 0,0 l/m 0,0 km/h (0 Bft) NO 41 0 min 0,000 mm 1,0 UV-I 125 W/m 4,6 C 8,8 C 0,0 km/h (0 Bft) 0,00 %
10.10.2015 10:13 9,0 C 74 % 1017,3 hPa 0,0 l/m 0,4 km/h (0 Bft) SO 128 0 min 0,000 mm 1,0 UV-I 125 W/m 4,6 C 9,0 C 4,0 km/h (1 Bft) 0,00 %
10.10.2015 10:18 9,0 C 74 % 1017,0 hPa 0,0 l/m 9,7 km/h (2 Bft) O 94 0 min 0,000 mm 1,0 UV-I 138 W/m 4,6 C 6,7 C 11,9 km/h (2 Bft) 0,00 %
10.10.2015 10:23 9,0 C 74 % 1017,1 hPa 0,0 l/m 5,4 km/h (1 Bft) O 87 0 min 0,000 mm 1,0 UV-I 148 W/m 4,6 C 9,0 C 7,9 km/h (2 Bft) 0,00 %
10.10.2015 10:28 8,9 C 75 % 1017,1 hPa 0,0 l/m 4,0 km/h (1 Bft) O-NO 71 0 min 0,000 mm 1,0 UV-I 168 W/m 4,7 C 8,9 C 7,9 km/h (2 Bft) 0,00 %
10.10.2015 10:33 9,0 C 74 % 1016,4 hPa 0,0 l/m 11,9 km/h (2 Bft) O 101 0 min 0,000 mm 1,0 UV-I 175 W/m 4,6 C 5,4 C 15,8 km/h (3 Bft) 0,00 %
10.10.2015 10:38 9,0 C 74 % 1016,3 hPa 0,0 l/m 9,7 km/h (2 Bft) SO 129 0 min 0,000 mm 1,0 UV-I 200 W/m 4,6 C 6,7 C 15,8 km/h (3 Bft) 0,00 %
10.10.2015 10:43 9,2 C 74 % 1016,8 hPa 0,0 l/m 10,8 km/h (2 Bft) O 84 0 min 0,000 mm 1,0 UV-I 236 W/m 4,8 C 6,2 C 19,8 km/h (3 Bft) 0,00 %
10.10.2015 10:48 9,3 C 73 % 1016,8 hPa 0,0 l/m 9,0 km/h (2 Bft) O 87 0 min 0,000 mm 1,0 UV-I 251 W/m 4,7 C 7,4 C 15,8 km/h (3 Bft) 0,00 %
10.10.2015 10:53 9,4 C 74 % 1016,5 hPa 0,0 l/m 2,2 km/h (1 Bft) NO 55 5 min 0,000 mm 1,0 UV-I 282 W/m 5,0 C 9,4 C 4,0 km/h (1 Bft) 0,00 %
10.10.2015 10:58 9,6 C 72 % 1016,5 hPa 0,0 l/m 5,8 km/h (2 Bft) O-SO 102 5 min 0,000 mm 1,0 UV-I 329 W/m 4,8 C 9,6 C 7,9 km/h (2 Bft) 0,00 %
10.10.2015 11:03 9,9 C 71 % 1016,5 hPa 0,0 l/m 15,8 km/h (3 Bft) O-NO 71 0 min 0,000 mm 1,0 UV-I 247 W/m 4,9 C 4,7 C 19,8 km/h (3 Bft) 0,00 %
10.10.2015 11:08 10,2 C 70 % 1016,4 hPa 0,0 l/m 9,0 km/h (2 Bft) O 94 0 min 0,000 mm 1,0 UV-I 242 W/m 5,0 C 8,4 C 11,9 km/h (2 Bft) 0,00 %
10.10.2015 11:13 10,3 C 71 % 1016,5 hPa 0,0 l/m 4,0 km/h (1 Bft) O 86 0 min 0,000 mm 1,0 UV-I 215 W/m 5,3 C 10,3 C 7,9 km/h (2 Bft) 0,00 %
10.10.2015 11:18 10,3 C 70 % 1016,4 hPa 0,0 l/m 14,8 km/h (3 Bft) SO 142 0 min 0,000 mm 1,0 UV-I 226 W/m 5,1 C 5,6 C 19,8 km/h (3 Bft) 0,00 %
10.10.2015 11:23 10,2 C 71 % 1016,4 hPa 0,0 l/m 14,4 km/h (3 Bft) O 84 0 min 0,000 mm 1,0 UV-I 222 W/m 5,2 C 5,6 C 19,8 km/h (3 Bft) 0,00 %
10.10.2015 11:28 10,2 C 71 % 1016,3 hPa 0,0 l/m 8,3 km/h (2 Bft) O-NO 77 0 min 0,000 mm 1,0 UV-I 274 W/m 5,2 C 8,9 C 11,9 km/h (2 Bft) 0,00 %
10.10.2015 11:33 10,2 C 71 % 1016,2 hPa 0,0 l/m 10,8 km/h (2 Bft) O 100 0 min 0,000 mm 1,0 UV-I 245 W/m 5,2 C 7,4 C 15,8 km/h (3 Bft) 0,00 %
10.10.2015 11:38 10,2 C 71 % 1016,1 hPa 0,0 l/m 15,5 km/h (3 Bft) O-NO 78 0 min 0,000 mm 1,0 UV-I 267 W/m 5,2 C 5,2 C 19,8 km/h (3 Bft) 0,00 %
10.10.2015 11:43 10,1 C 71 % 1016,3 hPa 0,0 l/m 14,8 km/h (3 Bft) O-NO 69 0 min 0,000 mm 1,0 UV-I 201 W/m 5,1 C 5,3 C 19,8 km/h (3 Bft) 0,00 %
10.10.2015 11:48 10,0 C 73 % 1016,4 hPa 0,0 l/m 9,7 km/h (2 Bft) O-SO 120 0 min 0,000 mm 1,0 UV-I 231 W/m 5,4 C 7,8 C 15,8 km/h (3 Bft) 0,00 %
10.10.2015 11:53 9,9 C 72 % 1016,0 hPa 0,0 l/m 2,2 km/h (1 Bft) O 96 0 min 0,000 mm 1,0 UV-I 281 W/m 5,1 C 9,9 C 7,9 km/h (2 Bft) 0,00 %
10.10.2015 11:58 10,0 C 72 % 1015,9 hPa 0,0 l/m 7,2 km/h (2 Bft) O-NO 66 0 min 0,000 mm 1,0 UV-I 296 W/m 5,2 C 9,4 C 11,9 km/h (2 Bft) 0,00 %
10.10.2015 12:03 10,2 C 72 % 1016,0 hPa 0,0 l/m 6,5 km/h (2 Bft) O 99 0 min 0,000 mm 2,0 UV-I 309 W/m 5,4 C 10,2 C 7,9 km/h (2 Bft) 0,00 %
10.10.2015 12:08 10,3 C 72 % 1015,8 hPa 0,0 l/m 6,5 km/h (2 Bft) SO 129 5 min 0,000 mm 2,0 UV-I 382 W/m 5,5 C 10,3 C 7,9 km/h (2 Bft) 0,00 %
10.10.2015 12:13 10,5 C 70 % 1015,8 hPa 0,0 l/m 6,8 km/h (2 Bft) O-SO 112 5 min 0,000 mm 2,0 UV-I 407 W/m 5,3 C 10,2 C 11,9 km/h (2 Bft) 0,00 %
10.10.2015 12:18 10,6 C 71 % 1015,8 hPa 0,0 l/m 5,4 km/h (1 Bft) NO 56 0 min 0,000 mm 2,0 UV-I 315 W/m 5,6 C 10,6 C 7,9 km/h (2 Bft) 0,00 %
10.10.2015 12:23 10,7 C 71 % 1015,8 hPa 0,0 l/m 4,7 km/h (1 Bft) O 90 5 min 0,000 mm 2,0 UV-I 332 W/m 5,7 C 10,7 C 7,9 km/h (2 Bft) 0,00 %
10.10.2015 12:28 10,7 C 72 % 1015,8 hPa 0,0 l/m 2,2 km/h (1 Bft) O 93 5 min 0,000 mm 2,0 UV-I 343 W/m 5,9 C 10,7 C 4,0 km/h (1 Bft) 0,00 %
10.10.2015 12:33 10,9 C 69 % 1015,9 hPa 0,0 l/m 4,7 km/h (1 Bft) NO 36 0 min 0,000 mm 2,0 UV-I 318 W/m 5,4 C 10,9 C 11,9 km/h (2 Bft) 0,00 %
10.10.2015 12:38 11,0 C 70 % 1015,6 hPa 0,0 l/m 7,2 km/h (2 Bft) SO 128 5 min 0,000 mm 2,0 UV-I 332 W/m 5,7 C 10,4 C 11,9 km/h (2 Bft) 0,00 %
10.10.2015 12:43 11,0 C 70 % 1015,5 hPa 0,0 l/m 10,4 km/h (2 Bft) O-SO 115 5 min 0,000 mm 2,0 UV-I 321 W/m 5,7 C 8,5 C 15,8 km/h (3 Bft) 0,00 %
10.10.2015 12:48 11,1 C 71 % 1015,6 hPa 0,0 l/m 5,8 km/h (2 Bft) SO 135 0 min 0,000 mm 1,0 UV-I 293 W/m 6,0 C 11,1 C 11,9 km/h (2 Bft) 0,00 %
10.10.2015 12:53 11,1 C 70 % 1015,7 hPa 0,0 l/m 6,8 km/h (2 Bft) O-SO 121 0 min 0,000 mm 1,0 UV-I 281 W/m 5,8 C 10,8 C 11,9 km/h (2 Bft) 0,00 %
10.10.2015 12:58 11,1 C 72 % 1015,5 hPa 0,0 l/m 1,8 km/h (1 Bft) O-SO 113 0 min 0,000 mm 1,0 UV-I 272 W/m 6,2 C 11,1 C 4,0 km/h (1 Bft) 0,00 %
10.10.2015 13:03 11,0 C 72 % 1015,5 hPa 0,0 l/m 8,3 km/h (2 Bft) O-SO 116 0 min 0,000 mm 1,0 UV-I 300 W/m 6,2 C 9,7 C 11,9 km/h (2 Bft) 0,00 %
10.10.2015 13:08 11,0 C 73 % 1015,2 hPa 0,0 l/m 5,4 km/h (1 Bft) S-SO 154 0 min 0,000 mm 1,0 UV-I 298 W/m 6,4 C 11,0 C 7,9 km/h (2 Bft) 0,00 %
10.10.2015 13:13 10,9 C 74 % 1015,2 hPa 0,0 l/m 8,3 km/h (2 Bft) O-NO 65 0 min 0,000 mm 1,0 UV-I 272 W/m 6,5 C 9,6 C 11,9 km/h (2 Bft) 0,00 %
10.10.2015 13:18 10,7 C 74 % 1015,3 hPa 0,0 l/m 7,2 km/h (2 Bft) O 91 0 min 0,000 mm 1,0 UV-I 261 W/m 6,3 C 10,1 C 11,9 km/h (2 Bft) 0,00 %
10.10.2015 13:24 10,7 C 74 % 1015,1 hPa 0,0 l/m 11,9 km/h (2 Bft) O 90 0 min 0,000 mm 1,0 UV-I 292 W/m 6,3 C 7,4 C 15,8 km/h (3 Bft) 0,00 %
10.10.2015 13:29 10,7 C 75 % 1015,2 hPa 0,0 l/m 6,8 km/h (2 Bft) O-SO 107 0 min 0,000 mm 1,0 UV-I 303 W/m 6,5 C 10,4 C 7,9 km/h (2 Bft) 0,00 %
10.10.2015 13:34 10,8 C 74 % 1015,0 hPa 0,0 l/m 7,2 km/h (2 Bft) O-NO 70 0 min 0,000 mm 1,0 UV-I 274 W/m 6,4 C 10,2 C 7,9 km/h (2 Bft) 0,00 %
10.10.2015 13:39 10,8 C 75 % 1015,1 hPa 0,0 l/m 11,9 km/h (2 Bft) O-SO 103 0 min 0,000 mm 1,0 UV-I 277 W/m 6,5 C 7,5 C 15,8 km/h (3 Bft) 0,00 %
10.10.2015 13:44 10,8 C 75 % 1015,1 hPa 0,0 l/m 10,8 km/h (2 Bft) O 83 0 min 0,000 mm 1,0 UV-I 267 W/m 6,5 C 8,0 C 15,8 km/h (3 Bft) 0,00 %
10.10.2015 13:49 10,8 C 76 % 1014,8 hPa 0,0 l/m 13,0 km/h (3 Bft) O-NO 67 0 min 0,000 mm 1,0 UV-I 282 W/m 6,7 C 7,0 C 19,8 km/h (3 Bft) 0,00 %
10.10.2015 13:54 10,7 C 76 % 1014,9 hPa 0,0 l/m 5,4 km/h (1 Bft) O-SO 112 0 min 0,000 mm 1,0 UV-I 286 W/m 6,6 C 10,7 C 7,9 km/h (2 Bft) 0,00 %
10.10.2015 13:59 10,7 C 76 % 1014,7 hPa 0,0 l/m 13,0 km/h (3 Bft) O-NO 77 0 min 0,000 mm 1,0 UV-I 300 W/m 6,6 C 6,8 C 15,8 km/h (3 Bft) 0,00 %
10.10.2015 14:04 10,8 C 75 % 1014,5 hPa 0,0 l/m 2,9 km/h (1 Bft) O-SO 107 0 min 0,000 mm 1,0 UV-I 268 W/m 6,5 C 10,8 C 4,0 km/h (1 Bft) 0,00 %
10.10.2015 14:09 11,0 C 76 % 1014,7 hPa 0,0 l/m 15,8 km/h (3 Bft) O-SO 118 5 min 0,000 mm 2,0 UV-I 349 W/m 6,9 C 6,0 C 19,8 km/h (3 Bft) 0,00 %
10.10.2015 14:14 11,1 C 75 % 1014,6 hPa 0,0 l/m 0,7 km/h (0 Bft) O-NO 60 5 min 0,000 mm 1,0 UV-I 300 W/m 6,8 C 11,1 C 4,0 km/h (1 Bft) 0,00 %
10.10.2015 14:19 11,3 C 75 % 1014,6 hPa 0,0 l/m 15,5 km/h (3 Bft) O-SO 115 5 min 0,000 mm 1,0 UV-I 296 W/m 7,0 C 6,5 C 19,8 km/h (3 Bft) 0,00 %
10.10.2015 14:24 11,2 C 75 % 1014,4 hPa 0,0 l/m 5,8 km/h (2 Bft) O-NO 78 5 min 0,000 mm 1,0 UV-I 319 W/m 6,9 C 11,2 C 7,9 km/h (2 Bft) 0,00 %
10.10.2015 14:29 11,0 C 75 % 1014,2 hPa 0,0 l/m 16,9 km/h (3 Bft) O-NO 75 5 min 0,000 mm 1,0 UV-I 341 W/m 6,7 C 5,6 C 24,1 km/h (4 Bft) 0,00 %
10.10.2015 14:34 10,9 C 76 % 1013,9 hPa 0,0 l/m 11,9 km/h (2 Bft) O-NO 77 5 min 0,000 mm 1,0 UV-I 424 W/m 6,8 C 7,6 C 11,9 km/h (2 Bft) 0,00 %
10.10.2015 14:39 10,9 C 76 % 1014,1 hPa 0,0 l/m 18,4 km/h (3 Bft) O-SO 113 5 min 0,000 mm 1,0 UV-I 299 W/m 6,8 C 5,0 C 24,1 km/h (4 Bft) 0,00 %
10.10.2015 14:44 10,9 C 76 % 1013,9 hPa 0,0 l/m 13,0 km/h (3 Bft) O-NO 78 5 min 0,000 mm 1,0 UV-I 383 W/m 6,8 C 7,1 C 15,8 km/h (3 Bft) 0,00 %
10.10.2015 14:49 10,9 C 75 % 1014,3 hPa 0,0 l/m 11,9 km/h (2 Bft) O 100 0 min 0,000 mm 1,0 UV-I 256 W/m 6,6 C 7,6 C 19,8 km/h (3 Bft) 0,00 %
10.10.2015 14:54 10,9 C 77 % 1014,1 hPa 0,0 l/m 18,0 km/h (3 Bft) O 100 0 min 0,000 mm 1,0 UV-I 236 W/m 7,0 C 5,1 C 24,1 km/h (4 Bft) 0,00 %
10.10.2015 14:59 10,8 C 77 % 1014,0 hPa 0,0 l/m 9,4 km/h (2 Bft) O 83 0 min 0,000 mm 1,0 UV-I 249 W/m 6,9 C 8,8 C 11,9 km/h (2 Bft) 0,00 %
10.10.2015 15:04 10,7 C 78 % 1014,1 hPa 0,0 l/m 4,3 km/h (1 Bft) O-NO 57 5 min 0,000 mm 1,0 UV-I 268 W/m 7,0 C 10,7 C 7,9 km/h (2 Bft) 0,00 %
10.10.2015 15:09 10,7 C 77 % 1013,9 hPa 0,0 l/m 2,2 km/h (1 Bft) O-SO 105 0 min 0,000 mm 1,0 UV-I 241 W/m 6,8 C 10,7 C 7,9 km/h (2 Bft) 0,00 %
10.10.2015 15:14 10,8 C 78 % 1013,9 hPa 0,0 l/m 14,4 km/h (3 Bft) O 87 5 min 0,000 mm 1,0 UV-I 257 W/m 7,1 C 6,4 C 24,1 km/h (4 Bft) 0,00 %
10.10.2015 15:19 10,7 C 78 % 1013,8 hPa 0,0 l/m 12,2 km/h (2 Bft) O-SO 110 5 min 0,000 mm 1,0 UV-I 248 W/m 7,0 C 7,2 C 15,8 km/h (3 Bft) 0,00 %
10.10.2015 15:24 10,7 C 77 % 1013,9 hPa 0,0 l/m 14,0 km/h (3 Bft) SO 125 0 min 0,000 mm 1,0 UV-I 227 W/m 6,8 C 6,4 C 24,1 km/h (4 Bft) 0,00 %
10.10.2015 15:29 10,7 C 77 % 1013,8 hPa 0,0 l/m 6,8 km/h (2 Bft) O 83 5 min 0,000 mm 1,0 UV-I 258 W/m 6,8 C 10,4 C 11,9 km/h (2 Bft) 0,00 %
10.10.2015 15:34 10,6 C 78 % 1013,6 hPa 0,0 l/m 11,5 km/h (2 Bft) O-SO 103 5 min 0,000 mm 1,0 UV-I 300 W/m 6,9 C 7,5 C 19,8 km/h (3 Bft) 0,00 %
10.10.2015 15:39 10,7 C 78 % 1013,6 hPa 0,0 l/m 11,5 km/h (2 Bft) O 93 5 min 0,000 mm 1,0 UV-I 311 W/m 7,0 C 7,6 C 15,8 km/h (3 Bft) 0,00 %
10.10.2015 15:44 10,8 C 77 % 1013,6 hPa 0,0 l/m 12,2 km/h (2 Bft) O-SO 104 5 min 0,000 mm 1,0 UV-I 290 W/m 6,9 C 7,3 C 15,8 km/h (3 Bft) 0,00 %
10.10.2015 15:49 10,8 C 76 % 1013,4 hPa 0,0 l/m 10,8 km/h (2 Bft) O 94 5 min 0,000 mm 1,0 UV-I 317 W/m 6,7 C 8,0 C 15,8 km/h (3 Bft) 0,00 %
10.10.2015 15:54 10,8 C 76 % 1013,4 hPa 0,0 l/m 7,9 km/h (2 Bft) SO 124 5 min 0,000 mm 1,0 UV-I 280 W/m 6,7 C 9,8 C 11,9 km/h (2 Bft) 0,00 %
10.10.2015 15:59 10,7 C 76 % 1013,5 hPa 0,0 l/m 5,4 km/h (1 Bft) O-NO 76 5 min 0,000 mm 1,0 UV-I 237 W/m 6,6 C 10,7 C 7,9 km/h (2 Bft) 0,00 %
10.10.2015 16:04 10,7 C 77 % 1013,2 hPa 0,0 l/m 1,8 km/h (1 Bft) O 88 5 min 0,000 mm 1,0 UV-I 250 W/m 6,8 C 10,7 C 7,9 km/h (2 Bft) 0,00 %
10.10.2015 16:09 10,7 C 76 % 1013,2 hPa 0,0 l/m 5,8 km/h (2 Bft) O-NO 77 5 min 0,000 mm 1,0 UV-I 242 W/m 6,6 C 10,7 C 7,9 km/h (2 Bft) 0,00 %
10.10.2015 16:14 10,8 C 77 % 1013,2 hPa 0,0 l/m 8,3 km/h (2 Bft) O 99 5 min 0,000 mm 1,0 UV-I 270 W/m 6,9 C 9,5 C 11,9 km/h (2 Bft) 0,00 %
10.10.2015 16:19 10,8 C 77 % 1013,6 hPa 0,0 l/m 5,8 km/h (2 Bft) O 98 5 min 0,000 mm 1,0 UV-I 218 W/m 6,9 C 10,8 C 7,9 km/h (2 Bft) 0,00 %
10.10.2015 16:24 10,8 C 76 % 1013,6 hPa 0,0 l/m 4,3 km/h (1 Bft) O 91 5 min 0,000 mm 1,0 UV-I 176 W/m 6,7 C 10,8 C 7,9 km/h (2 Bft) 0,00 %
10.10.2015 16:29 10,7 C 76 % 1013,6 hPa 0,0 l/m 9,4 km/h (2 Bft) O 89 0 min 0,000 mm 1,0 UV-I 151 W/m 6,6 C 8,7 C 15,8 km/h (3 Bft) 0,00 %
10.10.2015 16:34 10,5 C 77 % 1013,4 hPa 0,0 l/m 9,0 km/h (2 Bft) O-SO 109 5 min 0,000 mm 1,0 UV-I 181 W/m 6,6 C 8,7 C 11,9 km/h (2 Bft) 0,00 %
10.10.2015 16:39 10,3 C 78 % 1013,6 hPa 0,0 l/m 10,4 km/h (2 Bft) SO 135 5 min 0,000 mm 1,0 UV-I 160 W/m 6,6 C 7,7 C 15,8 km/h (3 Bft) 0,00 %
10.10.2015 16:44 10,2 C 78 % 1013,5 hPa 0,0 l/m 6,8 km/h (2 Bft) O-NO 75 5 min 0,000 mm 1,0 UV-I 162 W/m 6,5 C 9,9 C 11,9 km/h (2 Bft) 0,00 %
10.10.2015 16:49 10,2 C 79 % 1013,7 hPa 0,0 l/m 6,5 km/h (2 Bft) O-SO 116 5 min 0,000 mm 1,0 UV-I 140 W/m 6,7 C 10,2 C 7,9 km/h (2 Bft) 0,00 %
10.10.2015 16:54 10,2 C 79 % 1013,5 hPa 0,0 l/m 1,4 km/h (1 Bft) O 89 5 min 0,000 mm 1,0 UV-I 134 W/m 6,7 C 10,2 C 4,0 km/h (1 Bft) 0,00 %
10.10.2015 16:59 10,2 C 79 % 1013,4 hPa 0,0 l/m 10,8 km/h (2 Bft) SO 133 5 min 0,000 mm 0,0 UV-I 138 W/m 6,7 C 7,4 C 15,8 km/h (3 Bft) 0,00 %
10.10.2015 17:04 10,1 C 79 % 1013,3 hPa 0,0 l/m 11,5 km/h (2 Bft) SO 134 5 min 0,000 mm 0,0 UV-I 131 W/m 6,6 C 6,9 C 15,8 km/h (3 Bft) 0,00 %
10.10.2015 17:09 10,0 C 79 % 1013,6 hPa 0,0 l/m 6,5 km/h (2 Bft) O-SO 110 5 min 0,000 mm 0,0 UV-I 116 W/m 6,5 C 10,0 C 7,9 km/h (2 Bft) 0,00 %
10.10.2015 17:14 9,9 C 80 % 1013,5 hPa 0,0 l/m 9,7 km/h (2 Bft) O 88 0 min 0,000 mm 0,0 UV-I 101 W/m 6,6 C 7,7 C 15,8 km/h (3 Bft) 0,00 %
10.10.2015 17:19 9,8 C 81 % 1013,6 hPa 0,0 l/m 5,8 km/h (2 Bft) SO 131 0 min 0,000 mm 0,0 UV-I 88 W/m 6,7 C 9,8 C 11,9 km/h (2 Bft) 0,00 %
10.10.2015 17:24 9,6 C 81 % 1013,7 hPa 0,0 l/m 11,9 km/h (2 Bft) SO 134 0 min 0,000 mm 0,0 UV-I 78 W/m 6,5 C 6,1 C 15,8 km/h (3 Bft) 0,00 %
10.10.2015 17:29 9,5 C 81 % 1013,8 hPa 0,0 l/m 9,0 km/h (2 Bft) O 87 0 min 0,000 mm 0,0 UV-I 65 W/m 6,4 C 7,7 C 15,8 km/h (3 Bft) 0,00 %
10.10.2015 17:34 9,3 C 81 % 1013,8 hPa 0,0 l/m 9,0 km/h (2 Bft) SO 127 0 min 0,000 mm 0,0 UV-I 63 W/m 6,2 C 7,4 C 11,9 km/h (2 Bft) 0,00 %
10.10.2015 17:39 9,2 C 81 % 1013,7 hPa 0,0 l/m 5,8 km/h (2 Bft) O 88 0 min 0,000 mm 0,0 UV-I 52 W/m 6,1 C 9,2 C 7,9 km/h (2 Bft) 0,00 %
10.10.2015 17:44 9,2 C 81 % 1013,6 hPa 0,0 l/m 1,8 km/h (1 Bft) N-NW 336 0 min 0,000 mm 0,0 UV-I 42 W/m 6,1 C 9,2 C 7,9 km/h (2 Bft) 0,00 %
10.10.2015 17:49 9,1 C 82 % 1013,5 hPa 0,0 l/m 6,5 km/h (2 Bft) O-SO 104 0 min 0,000 mm 0,0 UV-I 35 W/m 6,2 C 9,1 C 11,9 km/h (2 Bft) 0,00 %
10.10.2015 17:54 9,0 C 82 % 1013,6 hPa 0,0 l/m 9,7 km/h (2 Bft) O 90 0 min 0,000 mm 0,0 UV-I 29 W/m 6,1 C 6,7 C 15,8 km/h (3 Bft) 0,00 %
10.10.2015 17:59 8,9 C 83 % 1013,7 hPa 0,0 l/m 4,0 km/h (1 Bft) O 89 0 min 0,000 mm 0,0 UV-I 21 W/m 6,2 C 8,9 C 7,9 km/h (2 Bft) 0,00 %
10.10.2015 18:04 8,9 C 83 % 1013,5 hPa 0,0 l/m 4,7 km/h (1 Bft) O 97 0 min 0,000 mm 0,0 UV-I 11 W/m 6,2 C 8,9 C 11,9 km/h (2 Bft) 0,00 %
10.10.2015 18:09 8,7 C 83 % 1013,6 hPa 0,0 l/m 5,4 km/h (1 Bft) SO 129 0 min 0,000 mm 0,0 UV-I 5 W/m 6,0 C 8,7 C 7,9 km/h (2 Bft) 0,00 %
10.10.2015 18:14 8,6 C 83 % 1013,4 hPa 0,0 l/m 14,0 km/h (3 Bft) O 90 0 min 0,000 mm 0,0 UV-I 0 W/m 5,9 C 3,9 C 24,1 km/h (4 Bft) 0,00 %
10.10.2015 18:19 8,5 C 83 % 1013,6 hPa 0,0 l/m 11,9 km/h (2 Bft) O-SO 113 0 min 0,000 mm 0,0 UV-I 0 W/m 5,8 C 4,8 C 19,8 km/h (3 Bft) 0,00 %
10.10.2015 18:24 8,5 C 83 % 1013,5 hPa 0,0 l/m 6,5 km/h (2 Bft) O 94 0 min 0,000 mm 0,0 UV-I 0 W/m 5,8 C 8,4 C 15,8 km/h (3 Bft) 0,00 %
10.10.2015 18:29 8,4 C 84 % 1013,6 hPa 0,0 l/m 11,9 km/h (2 Bft) SO 133 0 min 0,000 mm 0,0 UV-I 0 W/m 5,9 C 4,7 C 15,8 km/h (3 Bft) 0,00 %
10.10.2015 18:34 8,4 C 84 % 1013,8 hPa 0,0 l/m 12,2 km/h (2 Bft) SO 143 0 min 0,000 mm 0,0 UV-I 0 W/m 5,9 C 4,6 C 15,8 km/h (3 Bft) 0,00 %
10.10.2015 18:39 8,3 C 84 % 1013,6 hPa 0,0 l/m 3,2 km/h (1 Bft) O-NO 65 0 min 0,000 mm 0,0 UV-I 0 W/m 5,8 C 8,3 C 7,9 km/h (2 Bft) 0,00 %
10.10.2015 18:44 8,3 C 84 % 1013,7 hPa 0,0 l/m 9,4 km/h (2 Bft) O-NO 78 0 min 0,000 mm 0,0 UV-I 0 W/m 5,8 C 6,1 C 11,9 km/h (2 Bft) 0,00 %
10.10.2015 18:49 8,3 C 84 % 1013,9 hPa 0,0 l/m 7,2 km/h (2 Bft) NO 47 0 min 0,000 mm 0,0 UV-I 0 W/m 5,8 C 7,7 C 11,9 km/h (2 Bft) 0,00 %
10.10.2015 18:54 8,3 C 84 % 1013,8 hPa 0,0 l/m 10,8 km/h (2 Bft) O-SO 109 0 min 0,000 mm 0,0 UV-I 0 W/m 5,8 C 5,2 C 15,8 km/h (3 Bft) 0,00 %
10.10.2015 18:59 8,3 C 84 % 1013,8 hPa 0,0 l/m 15,8 km/h (3 Bft) O 100 0 min 0,000 mm 0,0 UV-I 0 W/m 5,8 C 2,7 C 24,1 km/h (4 Bft) 0,00 %
10.10.2015 19:04 8,2 C 84 % 1013,8 hPa 0,0 l/m 15,8 km/h (3 Bft) O-SO 121 0 min 0,000 mm 0,0 UV-I 0 W/m 5,7 C 2,6 C 19,8 km/h (3 Bft) 0,00 %
10.10.2015 19:09 8,2 C 84 % 1013,9 hPa 0,0 l/m 2,9 km/h (1 Bft) O-NO 74 0 min 0,000 mm 0,0 UV-I 0 W/m 5,7 C 8,2 C 7,9 km/h (2 Bft) 0,00 %
10.10.2015 19:14 8,1 C 84 % 1014,2 hPa 0,0 l/m 20,9 km/h (4 Bft) O-SO 119 0 min 0,000 mm 0,0 UV-I 0 W/m 5,6 C 0,5 C 28,1 km/h (4 Bft) 0,00 %
10.10.2015 19:19 8,1 C 84 % 1014,0 hPa 0,0 l/m 13,0 km/h (3 Bft) O-SO 115 0 min 0,000 mm 0,0 UV-I 0 W/m 5,6 C 3,8 C 15,8 km/h (3 Bft) 0,00 %
10.10.2015 19:24 8,1 C 84 % 1014,0 hPa 0,0 l/m 14,0 km/h (3 Bft) O 87 0 min 0,000 mm 0,0 UV-I 0 W/m 5,6 C 3,3 C 19,8 km/h (3 Bft) 0,00 %
10.10.2015 19:29 8,0 C 84 % 1013,9 hPa 0,0 l/m 10,8 km/h (2 Bft) O-SO 105 0 min 0,000 mm 0,0 UV-I 0 W/m 5,5 C 4,9 C 15,8 km/h (3 Bft) 0,00 %
10.10.2015 19:34 8,0 C 84 % 1014,2 hPa 0,0 l/m 19,8 km/h (3 Bft) O-NO 71 0 min 0,000 mm 0,0 UV-I 0 W/m 5,5 C 0,8 C 24,1 km/h (4 Bft) 0,00 %
10.10.2015 19:39 8,0 C 84 % 1014,2 hPa 0,0 l/m 11,5 km/h (2 Bft) O-NO 76 0 min 0,000 mm 0,0 UV-I 0 W/m 5,5 C 4,5 C 15,8 km/h (3 Bft) 0,00 %
10.10.2015 19:44 7,9 C 85 % 1014,1 hPa 0,0 l/m 9,0 km/h (2 Bft) O-SO 111 0 min 0,000 mm 0,0 UV-I 0 W/m 5,5 C 5,9 C 11,9 km/h (2 Bft) 0,00 %
10.10.2015 19:49 7,9 C 85 % 1014,1 hPa 0,0 l/m 9,0 km/h (2 Bft) O-NO 69 0 min 0,000 mm 0,0 UV-I 0 W/m 5,5 C 5,9 C 11,9 km/h (2 Bft) 0,00 %
10.10.2015 19:54 7,9 C 85 % 1014,1 hPa 0,0 l/m 10,4 km/h (2 Bft) O-SO 108 0 min 0,000 mm 0,0 UV-I 0 W/m 5,5 C 5,0 C 15,8 km/h (3 Bft) 0,00 %
10.10.2015 19:59 7,9 C 86 % 1014,0 hPa 0,0 l/m 11,9 km/h (2 Bft) O-SO 109 0 min 0,000 mm 0,0 UV-I 0 W/m 5,7 C 4,2 C 15,8 km/h (3 Bft) 0,00 %
10.10.2015 20:04 7,9 C 86 % 1014,1 hPa 0,0 l/m 9,0 km/h (2 Bft) O-SO 105 0 min 0,000 mm 0,0 UV-I 0 W/m 5,7 C 5,9 C 11,9 km/h (2 Bft) 0,00 %
10.10.2015 20:09 7,9 C 86 % 1014,0 hPa 0,0 l/m 10,4 km/h (2 Bft) O-SO 103 0 min 0,000 mm 0,0 UV-I 0 W/m 5,7 C 5,0 C 11,9 km/h (2 Bft) 0,00 %
10.10.2015 20:14 7,9 C 86 % 1014,2 hPa 0,0 l/m 7,9 km/h (2 Bft) NO 42 0 min 0,000 mm 0,0 UV-I 0 W/m 5,7 C 6,7 C 11,9 km/h (2 Bft) 0,00 %
10.10.2015 20:19 7,9 C 86 % 1014,0 hPa 0,0 l/m 16,9 km/h (3 Bft) SO 131 0 min 0,000 mm 0,0 UV-I 0 W/m 5,7 C 1,8 C 19,8 km/h (3 Bft) 0,00 %
10.10.2015 20:24 7,8 C 85 % 1014,1 hPa 0,0 l/m 6,8 km/h (2 Bft) O-SO 120 0 min 0,000 mm 0,0 UV-I 0 W/m 5,4 C 7,5 C 11,9 km/h (2 Bft) 0,00 %
10.10.2015 20:29 7,8 C 85 % 1014,2 hPa 0,0 l/m 5,4 km/h (1 Bft) O-SO 103 0 min 0,000 mm 0,0 UV-I 0 W/m 5,4 C 7,8 C 7,9 km/h (2 Bft) 0,00 %
10.10.2015 20:34 7,8 C 85 % 1014,0 hPa 0,0 l/m 8,3 km/h (2 Bft) O 81 0 min 0,000 mm 0,0 UV-I 0 W/m 5,4 C 6,3 C 11,9 km/h (2 Bft) 0,00 %
10.10.2015 20:39 7,8 C 85 % 1014,0 hPa 0,0 l/m 6,8 km/h (2 Bft) O 83 0 min 0,000 mm 0,0 UV-I 0 W/m 5,4 C 7,5 C 11,9 km/h (2 Bft) 0,00 %
10.10.2015 20:44 7,7 C 86 % 1014,0 hPa 0,0 l/m 10,4 km/h (2 Bft) O-NO 75 0 min 0,000 mm 0,0 UV-I 0 W/m 5,5 C 4,8 C 19,8 km/h (3 Bft) 0,00 %
10.10.2015 20:49 7,7 C 86 % 1014,0 hPa 0,0 l/m 11,9 km/h (2 Bft) O-SO 106 0 min 0,000 mm 0,0 UV-I 0 W/m 5,5 C 3,9 C 15,8 km/h (3 Bft) 0,00 %
10.10.2015 20:54 7,6 C 87 % 1014,2 hPa 0,0 l/m 5,8 km/h (2 Bft) O-NO 73 0 min 0,000 mm 0,0 UV-I 0 W/m 5,6 C 7,6 C 7,9 km/h (2 Bft) 0,00 %
10.10.2015 20:59 7,5 C 87 % 1014,1 hPa 0,0 l/m 5,8 km/h (2 Bft) O-NO 74 0 min 0,000 mm 0,0 UV-I 0 W/m 5,5 C 7,5 C 7,9 km/h (2 Bft) 0,00 %
10.10.2015 21:04 7,5 C 87 % 1014,2 hPa 0,0 l/m 7,2 km/h (2 Bft) O 82 0 min 0,000 mm 0,0 UV-I 0 W/m 5,5 C 6,9 C 11,9 km/h (2 Bft) 0,00 %
10.10.2015 21:09 7,5 C 87 % 1014,0 hPa 0,0 l/m 3,2 km/h (1 Bft) O 86 0 min 0,000 mm 0,0 UV-I 0 W/m 5,5 C 7,5 C 7,9 km/h (2 Bft) 0,00 %
10.10.2015 21:14 7,5 C 87 % 1014,0 hPa 0,0 l/m 2,9 km/h (1 Bft) O 99 0 min 0,000 mm 0,0 UV-I 0 W/m 5,5 C 7,5 C 7,9 km/h (2 Bft) 0,00 %
10.10.2015 21:19 7,5 C 86 % 1014,3 hPa 0,0 l/m 15,8 km/h (3 Bft) O 92 0 min 0,000 mm 0,0 UV-I 0 W/m 5,3 C 1,7 C 19,8 km/h (3 Bft) 0,00 %
10.10.2015 21:24 7,5 C 86 % 1014,0 hPa 0,0 l/m 16,6 km/h (3 Bft) SO 132 0 min 0,000 mm 0,0 UV-I 0 W/m 5,3 C 1,4 C 19,8 km/h (3 Bft) 0,00 %
10.10.2015 21:29 7,5 C 86 % 1014,1 hPa 0,0 l/m 4,7 km/h (1 Bft) O-NO 66 0 min 0,000 mm 0,0 UV-I 0 W/m 5,3 C 7,5 C 7,9 km/h (2 Bft) 0,00 %
10.10.2015 21:34 7,5 C 86 % 1014,0 hPa 0,0 l/m 21,6 km/h (4 Bft) O 94 0 min 0,000 mm 0,0 UV-I 0 W/m 5,3 C -0,5 C 32,0 km/h (5 Bft) 0,00 %
10.10.2015 21:39 7,5 C 86 % 1014,1 hPa 0,0 l/m 13,3 km/h (3 Bft) NO 51 0 min 0,000 mm 0,0 UV-I 0 W/m 5,3 C 2,9 C 15,8 km/h (3 Bft) 0,00 %
10.10.2015 21:44 7,4 C 86 % 1014,2 hPa 0,0 l/m 6,8 km/h (2 Bft) NO 44 0 min 0,000 mm 0,0 UV-I 0 W/m 5,2 C 7,1 C 11,9 km/h (2 Bft) 0,00 %
10.10.2015 21:49 7,4 C 86 % 1014,4 hPa 0,0 l/m 6,5 km/h (2 Bft) O 82 0 min 0,000 mm 0,0 UV-I 0 W/m 5,2 C 7,3 C 7,9 km/h (2 Bft) 0,00 %
10.10.2015 21:54 7,4 C 86 % 1014,3 hPa 0,0 l/m 12,2 km/h (2 Bft) O 95 0 min 0,000 mm 0,0 UV-I 0 W/m 5,2 C 3,4 C 15,8 km/h (3 Bft) 0,00 %
10.10.2015 21:59 7,4 C 86 % 1014,5 hPa 0,0 l/m 4,7 km/h (1 Bft) O 97 0 min 0,000 mm 0,0 UV-I 0 W/m 5,2 C 7,4 C 7,9 km/h (2 Bft) 0,00 %
10.10.2015 22:04 7,3 C 86 % 1014,4 hPa 0,0 l/m 1,8 km/h (1 Bft) O 95 0 min 0,000 mm 0,0 UV-I 0 W/m 5,1 C 7,3 C 4,0 km/h (1 Bft) 0,00 %
10.10.2015 22:09 7,3 C 87 % 1014,4 hPa 0,0 l/m 6,5 km/h (2 Bft) O 96 0 min 0,000 mm 0,0 UV-I 0 W/m 5,3 C 7,2 C 7,9 km/h (2 Bft) 0,00 %
10.10.2015 22:14 7,3 C 87 % 1014,3 hPa 0,0 l/m 4,3 km/h (1 Bft) O 98 0 min 0,000 mm 0,0 UV-I 0 W/m 5,3 C 7,3 C 7,9 km/h (2 Bft) 0,00 %
10.10.2015 22:19 7,3 C 87 % 1014,3 hPa 0,0 l/m 1,8 km/h (1 Bft) O 87 0 min 0,000 mm 0,0 UV-I 0 W/m 5,3 C 7,3 C 4,0 km/h (1 Bft) 0,00 %
10.10.2015 22:24 7,2 C 86 % 1014,4 hPa 0,0 l/m 4,7 km/h (1 Bft) O 86 0 min 0,000 mm 0,0 UV-I 0 W/m 5,0 C 7,2 C 7,9 km/h (2 Bft) 0,00 %
10.10.2015 22:29 7,2 C 87 % 1014,2 hPa 0,0 l/m 7,2 km/h (2 Bft) O 87 0 min 0,000 mm 0,0 UV-I 0 W/m 5,2 C 6,5 C 11,9 km/h (2 Bft) 0,00 %
10.10.2015 22:34 7,2 C 87 % 1014,3 hPa 0,0 l/m 0,4 km/h (0 Bft) O-NO 76 0 min 0,000 mm 0,0 UV-I 0 W/m 5,2 C 7,2 C 4,0 km/h (1 Bft) 0,00 %
10.10.2015 22:39 7,1 C 87 % 1014,2 hPa 0,0 l/m 6,8 km/h (2 Bft) O-SO 110 0 min 0,000 mm 0,0 UV-I 0 W/m 5,1 C 6,8 C 7,9 km/h (2 Bft) 0,00 %
10.10.2015 22:44 7,1 C 87 % 1014,2 hPa 0,0 l/m 0,7 km/h (0 Bft) O-SO 113 0 min 0,000 mm 0,0 UV-I 0 W/m 5,1 C 7,1 C 4,0 km/h (1 Bft) 0,00 %
10.10.2015 22:49 7,0 C 87 % 1014,2 hPa 0,0 l/m 1,4 km/h (1 Bft) O-NO 75 0 min 0,000 mm 0,0 UV-I 0 W/m 5,0 C 7,0 C 4,0 km/h (1 Bft) 0,00 %
10.10.2015 22:54 7,0 C 87 % 1014,0 hPa 0,0 l/m 2,2 km/h (1 Bft) O-NO 74 0 min 0,000 mm 0,0 UV-I 0 W/m 5,0 C 7,0 C 4,0 km/h (1 Bft) 0,00 %
10.10.2015 22:59 6,9 C 89 % 1014,1 hPa 0,0 l/m 10,8 km/h (2 Bft) O-SO 120 0 min 0,000 mm 0,0 UV-I 0 W/m 5,2 C 3,7 C 11,9 km/h (2 Bft) 0,00 %
10.10.2015 23:04 6,9 C 89 % 1014,1 hPa 0,0 l/m 2,9 km/h (1 Bft) O-NO 65 0 min 0,000 mm 0,0 UV-I 0 W/m 5,2 C 6,9 C 7,9 km/h (2 Bft) 0,00 %
10.10.2015 23:09 6,8 C 89 % 1014,1 hPa 0,0 l/m 2,9 km/h (1 Bft) O-SO 106 0 min 0,000 mm 0,0 UV-I 0 W/m 5,1 C 6,8 C 4,0 km/h (1 Bft) 0,00 %
10.10.2015 23:14 6,8 C 89 % 1014,1 hPa 0,0 l/m 2,2 km/h (1 Bft) O-NO 70 0 min 0,000 mm 0,0 UV-I 0 W/m 5,1 C 6,8 C 4,0 km/h (1 Bft) 0,00 %
10.10.2015 23:19 6,8 C 89 % 1013,9 hPa 0,0 l/m 5,8 km/h (2 Bft) O-NO 78 0 min 0,000 mm 0,0 UV-I 0 W/m 5,1 C 6,8 C 7,9 km/h (2 Bft) 0,00 %
10.10.2015 23:24 6,7 C 89 % 1014,1 hPa 0,0 l/m 5,4 km/h (1 Bft) O-SO 104 0 min 0,000 mm 0,0 UV-I 0 W/m 5,0 C 6,7 C 11,9 km/h (2 Bft) 0,00 %
10.10.2015 23:29 6,7 C 89 % 1014,0 hPa 0,0 l/m 11,5 km/h (2 Bft) SO 135 0 min 0,000 mm 0,0 UV-I 0 W/m 5,0 C 3,0 C 19,8 km/h (3 Bft) 0,00 %
10.10.2015 23:34 6,6 C 89 % 1013,9 hPa 0,0 l/m 6,8 km/h (2 Bft) O-NO 78 0 min 0,000 mm 0,0 UV-I 0 W/m 4,9 C 6,3 C 11,9 km/h (2 Bft) 0,00 %
10.10.2015 23:39 6,6 C 89 % 1013,7 hPa 0,0 l/m 7,2 km/h (2 Bft) O 95 0 min 0,000 mm 0,0 UV-I 0 W/m 4,9 C 5,9 C 15,8 km/h (3 Bft) 0,00 %
10.10.2015 23:44 6,6 C 89 % 1013,6 hPa 0,0 l/m 3,2 km/h (1 Bft) NO 53 0 min 0,000 mm 0,0 UV-I 0 W/m 4,9 C 6,6 C 7,9 km/h (2 Bft) 0,00 %
10.10.2015 23:49 6,6 C 89 % 1013,6 hPa 0,0 l/m 4,0 km/h (1 Bft) SO 137 0 min 0,000 mm 0,0 UV-I 0 W/m 4,9 C 6,6 C 7,9 km/h (2 Bft) 0,00 %
10.10.2015 23:54 6,6 C 88 % 1013,8 hPa 0,0 l/m 9,4 km/h (2 Bft) O 88 0 min 0,000 mm 0,0 UV-I 0 W/m 4,8 C 4,2 C 15,8 km/h (3 Bft) 0,00 %
10.10.2015 23:59 6,6 C 88 % 1013,7 hPa 0,0 l/m 9,0 km/h (2 Bft) O 96 0 min 0,000 mm 0,0 UV-I 0 W/m 4,8 C 4,5 C 11,9 km/h (2 Bft) 0,00 %
_ Min-Zeit 23:34 12:33 16:04 - 01:13 - - - - - - 07:48 21:34 01:13 00:03
Minimum _ 6,6 C 69 % 1013,2 hPa - 0,0 km/h (0 Bft) - - - - - - 4,0 C -0,5 C 0,0 km/h (0 Bft) 0,00 %
_ Max-Zeit 00:03 00:33 00:18 00:03 21:34 - - 10:53 00:03 12:03 14:34 00:33 00:03 21:34 00:03
Maximum _ 11,3 C 90 % 1018,4 hPa 0,0 l/m 21,6 km/h
O (4 Bft)
- - 5 min 0,000 mm 2,0 UV-I 424 W/m 9,7 C 11,3 C 32,0 km/h
O (5 Bft)
0,00 %
Durchschnitt _ 9,3 C 81 % 1015,8 hPa #0,0 l/m 7,1 km/h (2 Bft) O - #3:15 h #0,000 mm 1,1 UV-I 198 W/m 6,2 C 8,0 C 10,9 km/h (2 Bft) 0,00 %